Date String (YYYY-MM-DD hh:mm:ss) UTC,Instrument flags,absolute air pressure of the measurement (hPa),sample flow rate (lpm),inlet stack bypass flow (lpm),air temperature of the measurement (°C),ambient temperature measured by the external sensor (°C),aerosol sample conditioner tube jacket temperature (°C),OPC LED temperature (°C),internal box temperature (°C),relative humidity of the measurement (%),span deviation,mass concentration of particles derived from Lorenz-Mie calculation of OPC scattering (μg/m³),mass concentration of particles derived from Lorenz-Mie calculation of OPC scattering (μg/m³),mass concentration of particles derived from Lorenz-Mie calculation of OPC scattering (μg/m³)
DateTimeUTC,F1_M11,P_M11,Q1_M11,Q2_M11,T1_M11,T2_M11,T3_M11,T4_M11,T5_M11,U1_M11,ZSPAN_M11,X0_M11,X2_M11,X1_M11
2024-02-29 06:00:00,SystemResetWarning,0827.4,5.00,000.00,021.0,020.2,000.0,029.3,022.7,07.8,0000.0,0012.77,0004.28,0002.44
2024-02-29 06:01:00,SystemResetWarning,0827.4,5.01,000.00,021.0,020.2,000.0,029.4,022.8,07.8,0000.0,0012.77,0004.24,0002.44
2024-02-29 06:02:00,SystemResetWarning,0827.4,5.00,000.00,021.0,020.2,000.0,029.3,022.7,07.9,0000.0,0012.38,0004.20,0002.43
2024-02-29 06:03:00,SystemResetWarning,0827.4,5.01,000.00,021.0,020.2,000.0,029.3,022.7,07.8,0000.0,0012.73,0004.17,0002.42
2024-02-29 06:04:00,SystemResetWarning,0827.3,5.00,000.00,021.0,020.2,000.0,029.3,022.7,07.8,0000.0,0013.40,0004.19,0002.39
2024-02-29 06:05:00,SystemResetWarning,0827.3,4.99,000.00,021.0,020.2,000.0,029.3,022.7,07.8,0000.0,0012.85,0004.18,0002.37
2024-02-29 06:06:00,SystemResetWarning,0827.3,5.00,000.00,021.0,020.2,000.0,029.3,022.7,07.7,0000.0,0013.50,0004.15,0002.36
2024-02-29 06:07:00,SystemResetWarning,0827.4,4.99,000.00,021.0,020.2,000.0,029.3,022.7,07.8,0000.0,0013.50,0004.15,0002.35
2024-02-29 06:08:00,SystemResetWarning,0827.3,5.00,000.00,021.0,020.2,000.0,029.3,022.7,07.9,0000.0,0013.75,0004.14,0002.36
2024-02-29 06:09:00,SystemResetWarning,0827.3,5.01,000.00,021.0,020.1,000.0,029.3,022.7,07.8,0000.0,0013.87,0004.15,0002.36
2024-02-29 06:10:00,SystemResetWarning,0827.2,5.00,000.00,020.9,020.1,000.0,029.3,022.7,07.7,0000.0,0014.04,0004.12,0002.38
2024-02-29 06:11:00,SystemResetWarning,0827.1,5.00,000.00,020.9,020.1,000.0,029.3,022.7,07.5,0000.0,0014.32,0004.12,0002.39
2024-02-29 06:12:00,SystemResetWarning,0827.1,5.01,000.00,020.9,020.1,000.0,029.3,022.7,07.5,0000.0,0014.72,0004.09,0002.38
2024-02-29 06:13:00,SystemResetWarning,0827.1,5.00,000.00,020.9,020.1,000.0,029.3,022.6,07.5,0000.0,0015.37,0004.04,0002.37
2024-02-29 06:14:00,SystemResetWarning,0827.1,4.99,000.00,020.9,020.1,000.0,029.3,022.7,07.5,0000.0,0015.91,0004.02,0002.36
2024-02-29 06:15:00,SystemResetWarning,0827.1,4.99,000.00,020.9,020.1,000.0,029.3,022.7,07.5,0000.0,0015.01,0003.98,0002.37
2024-02-29 06:16:00,SystemResetWarning,0827.2,5.00,000.00,020.9,020.1,000.0,029.3,022.6,07.5,0000.0,0015.16,0003.99,0002.35
2024-02-29 06:17:00,SystemResetWarning,0827.1,5.00,000.00,020.9,020.1,000.0,029.3,022.6,07.5,0000.0,0014.29,0003.97,0002.36
2024-02-29 06:18:00,SystemResetWarning,0827.1,5.00,000.00,020.9,020.1,000.0,029.3,022.6,07.5,0000.0,0014.15,0004.01,0002.37
2024-02-29 06:19:00,SystemResetWarning,0827.1,5.01,000.00,020.9,020.1,000.0,029.3,022.6,07.4,0000.0,0014.86,0003.95,0002.35
2024-02-29 06:20:00,SystemResetWarning,0827.1,5.01,000.00,020.9,020.1,000.0,029.3,022.6,07.4,0000.0,0015.29,0003.90,0002.31
2024-02-29 06:21:00,SystemResetWarning,0827.1,5.00,000.00,020.9,020.1,000.0,029.3,022.6,07.3,0000.0,0015.20,0003.94,0002.29
2024-02-29 06:22:00,SystemResetWarning,0827.1,4.99,000.00,020.9,020.1,000.0,029.3,022.6,07.3,0000.0,0014.91,0003.95,0002.25
2024-02-29 06:23:00,SystemResetWarning,0827.0,5.00,000.00,020.9,020.1,000.0,029.3,022.6,07.5,0000.0,0013.97,0003.93,0002.22
2024-02-29 06:24:00,SystemResetWarning,0827.1,4.99,000.00,020.9,020.1,000.0,029.3,022.6,07.5,0000.0,0013.24,0003.95,0002.22
2024-02-29 06:25:00,SystemResetWarning,0827.1,5.00,000.00,020.9,020.0,000.0,029.3,022.6,07.6,0000.0,0011.99,0003.93,0002.21
2024-02-29 06:26:00,SystemResetWarning,0827.1,5.01,000.00,020.9,020.0,000.0,029.3,022.6,07.8,0000.0,0011.25,0003.93,0002.19
2024-02-29 06:27:00,SystemResetWarning,0827.1,5.01,000.00,020.8,020.0,000.0,029.3,022.6,07.7,0000.0,0010.82,0003.91,0002.17
2024-02-29 06:28:00,SystemResetWarning,0827.1,5.00,000.00,020.8,020.0,000.0,029.3,022.6,07.3,0000.0,0011.43,0003.92,0002.16
2024-02-29 06:29:00,SystemResetWarning,0827.1,4.99,000.00,020.8,020.0,000.0,029.2,022.5,07.1,0000.0,0011.80,0003.90,0002.12
2024-02-29 06:30:00,SystemResetWarning,0827.0,4.99,000.00,020.8,020.0,000.0,029.2,022.5,07.1,0000.0,0010.92,0003.90,0002.10
2024-02-29 06:31:00,SystemResetWarning,0827.0,5.00,000.00,020.8,020.0,000.0,029.2,022.5,07.0,0000.0,0010.56,0003.88,0002.10
2024-02-29 06:32:00,SystemResetWarning,0827.0,5.00,000.00,020.8,020.0,000.0,029.2,022.5,06.9,0000.0,0010.40,0003.79,0002.10
2024-02-29 06:33:00,SystemResetWarning,0827.0,5.01,000.00,020.8,020.0,000.0,029.2,022.5,07.1,0000.0,0010.42,0003.72,0002.07
2024-02-29 06:34:00,SystemResetWarning,0827.1,5.00,000.00,020.8,020.0,000.0,029.2,022.5,07.6,0000.0,0010.47,0003.69,0002.05
2024-02-29 06:35:00,SystemResetWarning,0827.0,4.99,000.00,020.8,020.0,000.0,029.2,022.5,07.7,0000.0,0010.36,0003.65,0002.02
2024-02-29 06:36:00,SystemResetWarning,0827.1,5.00,000.00,020.8,020.0,000.0,029.2,022.5,07.8,0000.0,0010.61,0003.63,0002.00
2024-02-29 06:37:00,SystemResetWarning,0827.1,5.00,000.00,020.8,020.0,000.0,029.2,022.5,07.2,0000.0,0010.92,0003.63,0001.99
2024-02-29 06:38:00,SystemResetWarning,0827.1,5.00,000.00,020.8,020.0,000.0,029.2,022.5,07.1,0000.0,0010.86,0003.58,0001.96
2024-02-29 06:39:00,SystemResetWarning,0827.1,4.99,000.00,020.8,020.0,000.0,029.2,022.5,07.5,0000.0,0010.80,0003.58,0001.95
2024-02-29 06:40:00,SystemResetWarning,0827.1,5.00,000.00,020.8,020.0,000.0,029.2,022.5,07.7,0000.0,0010.01,0003.56,0001.95
2024-02-29 06:41:00,SystemResetWarning,0827.0,5.00,000.00,020.8,020.1,000.0,029.2,022.6,07.5,0000.0,0009.96,0003.55,0001.95
2024-02-29 06:42:00,SystemResetWarning,0827.0,5.00,000.00,020.8,020.1,000.0,029.2,022.5,07.4,0000.0,0009.55,0003.54,0001.92
2024-02-29 06:43:00,SystemResetWarning,0827.1,5.00,000.00,020.8,020.1,000.0,029.2,022.6,07.5,0000.0,0009.12,0003.52,0001.90
2024-02-29 06:44:00,SystemResetWarning,0827.1,5.00,000.00,020.8,020.1,000.0,029.2,022.6,07.7,0000.0,0009.16,0003.56,0001.90
2024-02-29 06:45:00,SystemResetWarning,0827.1,5.00,000.00,020.8,020.1,000.0,029.2,022.6,07.7,0000.0,0009.55,0003.60,0001.90
2024-02-29 06:46:00,SystemResetWarning,0827.1,5.00,000.00,020.8,020.1,000.0,029.2,022.6,07.6,0000.0,0010.27,0003.60,0001.90
2024-02-29 06:47:00,SystemResetWarning,0827.0,5.00,000.00,020.8,020.0,000.0,029.1,022.5,07.5,0000.0,0010.09,0003.61,0001.90
2024-02-29 06:48:00,SystemResetWarning,0827.0,5.00,000.00,020.8,020.0,000.0,029.1,022.5,07.4,0000.0,0009.84,0003.61,0001.90
2024-02-29 06:49:00,SystemResetWarning,0827.0,5.00,000.00,020.8,020.0,000.0,029.1,022.5,07.3,0000.0,0010.52,0003.62,0001.92
2024-02-29 06:50:00,SystemResetWarning,0826.9,4.99,000.00,020.8,020.0,000.0,029.1,022.5,07.3,0000.0,0009.89,0003.53,0001.93
2024-02-29 06:51:00,SystemResetWarning,0826.9,4.99,000.00,020.8,020.0,000.0,029.1,022.5,07.4,0000.0,0010.02,0003.54,0001.92
2024-02-29 06:52:00,SystemResetWarning,0827.0,4.99,000.00,020.7,019.9,000.0,029.1,022.5,07.6,0000.0,0010.02,0003.56,0001.94
2024-02-29 06:53:00,SystemResetWarning,0826.9,5.01,000.00,020.7,019.9,000.0,029.1,022.4,07.7,0000.0,0010.37,0003.63,0001.97
2024-02-29 06:54:00,SystemResetWarning,0827.0,5.01,000.00,020.7,019.9,000.0,029.1,022.4,07.7,0000.0,0010.64,0003.67,0001.98
2024-02-29 06:55:00,SystemResetWarning,0827.0,5.01,000.00,020.7,019.8,000.0,029.1,022.4,07.6,0000.0,0010.74,0003.70,0002.00
2024-02-29 06:56:00,SystemResetWarning,0827.0,5.00,000.00,020.7,019.8,000.0,029.1,022.4,07.6,0000.0,0010.86,0003.64,0002.02
2024-02-29 06:57:00,SystemResetWarning,0827.0,4.99,000.00,020.7,019.8,000.0,029.1,022.4,07.6,0000.0,0010.33,0003.69,0002.06
2024-02-29 06:58:00,SystemResetWarning,0827.0,5.00,000.00,020.7,019.8,000.0,029.1,022.4,07.6,0000.0,0010.39,0003.71,0002.08
2024-02-29 06:59:00,SystemResetWarning,0826.9,5.00,000.00,020.7,019.8,000.0,029.1,022.4,07.3,0000.0,0010.54,0003.76,0002.10
